Location: Ku?niki
(51.4449°N, 17.8974°E)
Time: 14:24:21
(UTC+00:00)

POLYITAN 1 - Pass Details

Date: 05 July 2022
Orbit: 587 x 604 km, 98.0° (Epoch: 07 August)

Event Time Altitude Azimuth Distance (km) Brightness Sun altitude
Rises 00:19:30 0° 18° (NNE) 2,863 ? -13.4°
Reaches altitude 10° 00:21:45 10° 25° (NNE) 1,958 ? -13.2°
Maximum altitude 00:25:51 46° 99° (E) 813 ? -13.0°
Enters shadow 00:29:11 15° 170° (S) 1,654 ? -12.8°
